SCP
1 1 1 1 1 1 1 1 1 1 0 0 0 0 0 0 0 0 0 0 0 0 0 0 0 0 0 0 0 0 0 0 0 0 0 0 0 0 0 0 0 0 0
1 1 1 1 1 1 1 1 1 0 0 0 0 0 0 0 0 0 0 0 0 0 0 0 0 0 0 0 0 0 0 0 0 0 0 0 0 0 0 0 0 0 0
1 1 1 1 1 1 1 1 1 0 0 0 0 0 0 0 0 0 0 0 0 0 0 0 0 0 0 0 0 0 0 0 0 0 0 0 0 0 0 0 0 0 0
1 1 1 1 1 1 1 1 0 0 0 0 0 0 0 0 0 0 0 0 0 0 0 0 0 0 0 0 0 0 0 0 0 0 0 0 0 0 0 0 0 0 0
1 1 1 1 1 1 1 0 0 0 0 0 0 0 0 0 0 0 0 0 0 0 0 0 0 0 0 0 0 0 0 0 0 0 0 0 0 0 0 0 0 0 0
1 1 1 1 1 1 1 0 0 0 0 0 0 0 0 0 0 0 0 0 0 0 0 0 0 0 0 0 0 0 0 0 0 0 0 0 0 0 0 0 0 0 0
1 1 1 1 1 1 0 0 0 0 0 0 0 0 0 0 0 0 0 0 0 0 0 0 0 0 0 0 0 0 0 0 0 0 0 0 0 0 0 0 0 0 0
1 1 1 1 1 0 0 0 0 0 0 0 0 0 0 0 0 0 0 0 0 0 0 0 0 0 0 0 0 0 0 0 0 0 0 0 0 0 0 0 0 0 0
1 1 1 1 0 0 0 0 0 0 0 0 0 0 0 0 0 0 0 0 0 0 0 0 0 0 0 0 0 0 0 0 0 0 0 0 0 0 0 0 0 0 0
1 1 1 1 1 0 0 0 0 0 0 0 0 0 0 0 0 0 0 0 0 0 0 0 0 0 0 0 0 0 0 0 0 0 0 0 0 0 0 0 0 0 0
1 1 1 1 1 0 0 0 0 0 0 0 0 0 0 0 0 0 0 0 0 0 0 0 0 0 0 0 0 0 0 0 0 0 0 0 0 0 0 0 0 0 0
0 1 1 1 1 1 0 0 0 0 0 0 0 0 0 0 0 0 0 0 0 0 0 0 0 0 0 0 0 0 0 0 0 0 0 0 0 0 0 0 0 0 0
0 0 0 0 0 0 0 0 0 0 0 0 0 0 0 0 0 0 0 0 0 0 0 0 0 0 0 0 0 0 0 0 0 0 0 0 0 0 0 0 0 0 0
1 0 0 0 0 0 0 0 0 0 0 0 0 0 0 0 0 0 0 0 0 0 0 0 0 0 0 0 0 0 0 0 0 0 0 0 0 0 0 0 0 0 0
0 0 0 0 0 0 0 0 0 0 0 0 0 0 0 0 0 0 0 0 0 0 0 0 0 0 0 0 0 0 0 0 0 0 0 0 0 0 0 0 0 0 0
0 0 0 0 0 0 0 0 0 0 0 0 0 0 0 0 0 0 0 0 0 0 0 0 0 0 0 0 0 0 0 0 0 0 0 0 0 0 0 0 0 0 0
0 0 0 0 0 0 0 0 0 0 0 0 0 0 0 0 0 0 0 0 0 0 0 0 0 0 0 0 0 0 0 0 0 0 0 0 0 0 0 0 0 0 0
0 0 0 0 0 0 0 0 0 0 0 0 0 0 0 0 0 0 0 0 0 0 0 0 0 0 0 0 0 0 0 0 0 0 0 0 0 0 0 0 0 0 0
0 0 0 0 0 0 0 0 0 0 0 0 0 0 0 0 0 0 0 0 0 0 0 0 0 0 0 0 0 0 0 0 0 0 0 0 0 0 0 0 0 0 0
0 0 0 0 0 0 0 0 0 0 0 0 0 0 0 0 0 0 0 0 0 0 0 0 0 0 0 0 0 0 0 0 0 0 0 0 0 0 0 0 0 0 0
0 0 0 0 0 0 0 0 0 0 0 0 0 0 0 0 0 0 0 0 0 0 0 0 0 0 0 0 0 0 0 0 0 0 0 0 0 0 0 0 0 0 0
0 0 0 0 0 0 0 0 0 0 0 0 0 0 0 0 0 0 0 0 0 0 0 0 0 0 0 0 0 0 0 0 0 0 0 0 0 0 0 0 0 0 0
0 0 0 0 0 0 0 0 0 0 0 0 0 0 0 0 0 0 0 0 0 0 0 0 0 0 0 0 0 0 0 0 0 0 0 0 0 0 0 0 0 0 0
0 0 0 0 0 0 0 0 0 0 0 0 0 0 0 0 0 0 0 0 0 0 0 0 0 0 0 0 0 0 0 0 0 0 0 0 0 0 0 0 0 0 0
0 0 0 0 0 0 0 0 0 0 0 0 0 0 0 0 0 0 0 0 0 0 0 0 0 0 0 0 0 0 0 0 0 0 0 0 0 0 0 0 0 0 0
0 0 0 0 0 0 0 0 0 0 0 0 0 0 0 0 0 0 0 0 0 0 0 0 0 0 0 0 0 0 0 0 0 0 0 0 0 0 0 0 0 0 0
Wind_Speed
5 6 7 7 7 6 6 6 6 4 4 3 2 2 1 1 1 0 0 0 0 0 1 1 1 1 1 1 1 1 2 2 1 1 3 3 2 1 1 1 0 1 1
6 6 7 6 6 6 5 5 5 4 3 2 2 2 2 1 1 1 1 1 1 1 1 1 0 1 1 2 2 1 1 1 1 1 1 3 4 3 2 1 1 1 1
10 9 8 7 7 7 5 4 4 4 3 3 2 2 2 2 1 1 1 1 1 1 1 0 0 0 1 0 1 1 0 1 1 0 2 1 2 3 2 2 1 1 1
9 8 8 8 8 7 6 5 4 3 3 3 3 3 2 1 1 1 1 1 1 1 1 1 1 0 0 0 1 0 0 0 1 1 1 2 2 1 2 2 2 2 1
10 10 10 9 8 7 6 5 4 3 3 3 3 3 2 1 0 0 0 1 1 1 1 1 1 1 1 1 1 1 1 1 1 1 1 1 1 1 2 2 2 2 2
9 9 9 8 7 6 6 5 5 3 3 3 3 3 3 3 2 0 0 1 1 1 1 1 0 1 1 1 1 1 1 1 1 1 1 1 1 1 1 2 2 2 2
8 9 9 8 7 7 6 5 5 4 3 3 3 3 3 4 3 2 2 2 1 1 2 1 1 1 2 2 1 1 2 2 2 2 2 2 3 2 2 2 1 2 2
8 9 9 8 8 7 6 6 5 4 4 4 3 3 3 2 2 2 2 2 2 3 2 1 1 2 2 2 1 1 2 2 2 2 2 2 3 2 2 3 2 1 1
8 9 8 7 7 7 6 7 6 4 3 4 4 3 3 2 2 2 2 2 2 2 1 1 2 2 2 2 1 1 2 2 2 2 2 2 2 2 2 3 3 3 2
6 7 7 7 6 5 5 5 5 5 4 4 3 3 3 2 2 2 1 1 2 2 1 2 2 2 2 2 1 2 2 2 2 2 2 2 2 2 1 2 2 3 3
7 7 6 6 6 5 5 4 4 3 3 3 3 2 2 2 1 1 1 2 2 2 2 2 2 2 2 2 1 2 2 2 3 2 2 3 2 1 1 1 1 1 2
7 6 6 6 5 5 4 4 4 3 3 3 2 2 2 1 1 1 1 1 2 2 2 2 1 2 2 2 1 2 2 2 2 3 2 3 1 1 1 1 1 1 1
7 6 6 6 5 5 5 4 4 4 3 3 3 2 1 1 1 1 1 1 1 1 1 1 2 2 2 2 2 2 2 2 2 2 2 2 1 1 1 1 1 1 1
7 7 6 5 5 5 5 4 4 4 4 3 3 2 2 2 2 1 1 1 1 1 1 1 2 2 1 1 1 1 2 2 2 2 2 2 1 2 1 1 1 1 0
7 7 6 5 5 4 4 4 4 3 4 3 3 3 3 2 2 1 1 1 1 1 1 1 2 1 1 1 1 1 2 2 3 3 2 2 2 2 2 1 1 1 1
8 8 7 6 6 6 5 4 4 3 4 4 3 3 2 2 2 1 1 1 1 1 1 1 2 2 1 2 2 1 2 2 2 3 3 3 3 3 3 2 2 3 3
8 9 9 8 7 6 6 6 5 4 3 3 3 3 3 2 2 1 1 1 1 1 1 1 1 2 3 4 3 3 2 2 2 2 2 3 3 3 2 3 3 2 3
7 8 7 7 6 5 5 5 4 4 4 3 2 3 3 3 2 1 1 1 1 1 1 2 2 2 3 4 3 4 2 1 2 2 2 1 3 3 2 1 2 3 3
6 7 7 7 6 6 6 5 4 4 3 3 3 3 3 3 2 2 2 1 1 1 1 2 2 2 4 5 4 3 1 1 3 3 2 1 2 4 3 1 2 4 4
5 6 7 6 7 6 6 6 5 4 4 3 3 3 3 3 3 3 2 1 1 2 2 2 2 2 3 5 5 3 0 1 3 3 3 3 3 5 4 1 1 3 5
4 7 8 7 7 6 7 6 5 4 4 3 2 2 3 3 3 2 2 1 1 1 2 3 3 3 4 5 5 3 1 2 2 2 3 3 5 5 5 3 3 6 5
3 6 6 6 6 6 7 6 5 4 3 3 3 3 3 2 2 2 1 1 1 1 2 3 4 4 4 4 4 4 3 3 2 3 3 4 6 7 7 5 6 8 5
4 4 6 6 5 6 7 7 5 4 3 3 3 2 2 2 2 2 2 1 1 1 2 2 3 4 4 4 5 5 5 5 3 4 6 7 8 7 6 7 8 6 2
4 3 5 6 5 5 6 6 5 4 4 3 3 2 2 1 1 1 2 2 2 2 2 2 3 3 3 4 3 3 3 3 2 3 5 7 8 6 6 6 5 3 3
3 4 4 5 6 5 5 5 5 5 4 3 3 2 2 2 2 2 2 3 4 4 4 4 3 3 4 6 5 3 2 2 2 2 2 2 3 3 4 4 4 3 3
4 4 3 4 5 5 5 4 5 5 5 3 2 2 2 2 2 2 3 5 6 7 8 8 7 5 8 8 7 6 5 5 3 1 2 3 4 4 4 4 4 4 4
Wind_Direction
163 148 143 140 132 127 127 129 130 133 124 115 115 111 110 96 63 59 91 137 282 354 70 34 359 21 26 336 337 325 331 321 339 10 335 324 311 320 309 324 344 359 333
149 147 140 140 140 138 136 138 136 132 127 133 139 140 135 130 105 22 4 334 343 345 72 76 21 11 17 5 355 4 332 313 7 91 25 333 329 334 337 352 7 0 2
165 160 153 153 148 143 144 142 136 131 131 131 111 95 78 58 38 7 340 326 349 14 23 358 105 28 102 332 321 343 355 294 300 156 143 173 265 309 321 333 336 343 353
166 163 160 159 155 150 144 139 139 139 142 136 132 136 141 152 208 216 248 305 348 359 339 339 31 34 43 307 289 353 260 198 276 289 224 201 196 207 300 314 313 326 324
174 172 166 162 156 149 146 148 143 146 145 144 147 144 138 153 187 263 332 327 324 310 310 334 16 343 302 274 285 303 285 230 229 236 255 279 250 193 199 280 305 324 307
178 168 155 149 149 146 145 145 145 156 156 152 148 152 154 154 147 183 253 286 290 299 309 314 348 292 278 270 277 273 270 250 244 239 223 209 223 230 203 241 277 289 291
163 158 156 157 156 156 157 157 155 167 173 169 171 176 174 171 179 198 214 226 246 260 272 293 284 272 271 269 273 273 273 255 250 249 247 234 230 212 196 201 240 272 289
157 157 161 164 162 165 166 168 173 181 184 185 192 191 181 180 199 207 210 219 233 241 246 248 259 272 289 300 304 293 277 266 263 267 263 251 250 220 199 188 184 254 292
152 160 161 161 165 169 176 179 179 182 187 194 193 190 187 189 203 216 217 230 246 248 253 253 268 290 299 307 314 300 295 288 274 271 265 256 253 240 222 197 180 179 232
146 152 154 156 160 168 176 179 180 183 189 194 195 189 189 196 207 202 206 216 242 250 260 279 281 286 295 302 298 288 287 297 290 275 280 277 260 259 248 212 199 189 188
157 157 157 155 157 159 163 165 173 179 187 186 182 168 183 186 177 185 211 222 238 242 248 258 266 276 289 291 280 276 286 291 290 292 282 284 278 266 268 245 214 206 182
151 145 146 146 154 161 164 170 173 174 183 176 163 163 173 170 175 200 231 230 243 253 242 245 264 272 278 279 272 281 297 287 286 291 295 297 310 306 278 253 250 240 208
133 135 144 155 164 168 172 178 179 176 178 164 154 159 171 178 206 224 233 235 234 256 260 239 254 259 270 276 276 279 294 295 284 282 279 289 320 317 302 286 266 258 248
145 150 157 167 172 175 176 178 181 177 168 156 154 170 193 202 215 220 221 226 218 229 266 271 271 260 268 282 283 301 313 314 309 300 281 275 252 249 275 290 269 233 267
157 166 171 174 175 176 179 176 173 170 165 162 168 191 206 204 189 196 225 231 230 233 247 287 295 286 301 302 298 298 311 322 323 324 315 291 281 265 254 254 244 202 209
172 174 176 179 180 180 178 168 168 171 160 166 183 195 194 181 183 197 217 212 254 269 285 305 297 304 312 319 308 301 309 314 312 314 322 319 308 312 310 294 258 212 198
179 179 182 187 184 179 169 168 173 164 157 165 180 190 185 183 189 190 171 228 244 220 303 309 329 319 308 310 310 300 288 297 300 292 306 326 334 336 320 307 308 295 242
186 185 183 182 177 167 160 162 160 161 164 172 180 184 184 191 190 176 206 239 251 251 280 296 306 302 301 305 309 308 312 312 307 294 273 286 310 312 315 311 322 311 292
191 186 178 169 163 163 162 154 158 164 170 183 195 198 188 188 189 199 229 242 246 269 269 277 291 295 297 303 304 302 322 327 317 315 308 283 291 301 313 328 310 314 308
175 167 157 149 156 165 157 152 164 170 188 195 198 195 184 184 194 208 224 232 224 252 275 295 292 276 279 292 300 292 233 306 306 314 311 297 286 299 313 288 274 287 288
158 154 150 155 166 164 154 157 167 189 201 191 183 186 187 192 196 200 215 224 244 295 303 301 300 293 278 285 291 278 200 239 282 299 301 295 298 298 298 285 250 252 265
138 147 150 163 167 162 156 162 183 198 187 177 181 194 197 203 185 181 223 243 229 282 294 299 306 303 291 280 280 271 245 232 235 266 278 284 296 297 292 284 268 272 276
160 157 160 163 167 168 163 171 194 186 174 172 188 201 197 208 185 182 209 247 248 246 272 277 288 298 297 293 285 277 269 256 239 258 270 283 291 296 291 277 276 278 258
162 155 157 165 173 175 173 179 184 176 167 176 191 196 186 216 225 219 211 211 228 238 254 261 269 282 291 290 292 291 291 290 281 285 290 293 291 285 275 283 287 264 235
170 159 166 174 179 178 180 182 176 167 165 175 188 195 199 204 222 244 237 227 234 222 220 239 238 249 274 272 262 259 268 264 265 291 302 307 308 307 300 295 288 277 262
163 159 166 171 174 176 181 187 180 170 166 173 185 196 206 217 224 244 285 276 255 258 251 244 239 248 250 266 273 274 269 264 261 253 281 288 282 276 278 282 287 282 269